| time (UTC) | temp F | wind direction | speed knots | gust knots | rain 1hr in | rain 24hr in | rain mn in | humidity % | barometer mb |
| 20260508014557 | 57 | 0 | 0.0 | 0.0 | 0.00 | 0.70 | 0.68 | 39 | 1016.6 |
| 20260508013104 | 60 | 0 | 0.0 | 0.0 | 0.00 | 0.70 | 0.68 | 32 | 1016.3 |
| 20260508011556 | 62 | 0 | 0.0 | 2.6 | 0.00 | 0.70 | 0.68 | 29 | 1016.2 |
| 20260508010055 | 64 | 298 | 0.0 | 0.9 | 0.00 | 0.70 | 0.68 | 25 | 1016.1 |
| 20260508004559 | 65 | 312 | 0.0 | 4.3 | 0.00 | 0.74 | 0.68 | 24 | 1016.1 |
| 20260508003103 | 66 | 0 | 0.9 | 5.2 | 0.00 | 0.74 | 0.68 | 23 | 1016.1 |
| 20260508001559 | 67 | 0 | 0.0 | 1.7 | 0.00 | 0.74 | 0.68 | 21 | 1016.0 |
| 20260508000057 | 66 | 274 | 1.7 | 7.0 | 0.00 | 0.74 | 0.68 | 21 | 1016.0 |
| 20260507234610 | 67 | 274 | 0.0 | 3.5 | 0.00 | 0.76 | 0.68 | 21 | 1016.1 |
| 20260507233059 | 66 | 0 | 0.0 | 4.3 | 0.00 | 0.76 | 0.68 | 23 | 1016.1 |
| 20260507231555 | 66 | 0 | 0.9 | 5.2 | 0.00 | 0.76 | 0.68 | 23 | 1016.3 |
| 20260507230105 | 66 | 345 | 0.9 | 7.0 | 0.00 | 0.76 | 0.68 | 23 | 1016.3 |
| 20260507224601 | 66 | 326 | 0.9 | 6.1 | 0.00 | 0.77 | 0.68 | 22 | 1016.4 |
| 20260507223055 | 66 | 0 | 1.7 | 7.8 | 0.00 | 0.77 | 0.68 | 24 | 1016.6 |
| 20260507221601 | 66 | 336 | 0.9 | 4.3 | 0.00 | 0.77 | 0.68 | 23 | 1016.7 |
| 20260507220059 | 65 | 43 | 0.0 | 5.2 | 0.00 | 0.77 | 0.68 | 23 | 1016.8 |
| 20260507214558 | 64 | 300 | 0.9 | 7.8 | 0.00 | 0.78 | 0.68 | 23 | 1017.1 |
| 20260507213106 | 63 | 316 | 3.5 | 10.4 | 0.00 | 0.78 | 0.68 | 22 | 1017.4 |
| 20260507211600 | 63 | 330 | 1.7 | 7.0 | 0.00 | 0.78 | 0.68 | 21 | 1017.8 |
| 20260507210057 | 62 | 199 | 0.9 | 5.2 | 0.00 | 0.78 | 0.68 | 21 | 1018.2 |
| 20260507204603 | 62 | 262 | 3.5 | 12.2 | 0.00 | 0.80 | 0.68 | 23 | 1018.4 |
| 20260507203059 | 61 | 291 | 2.6 | 8.7 | 0.00 | 0.80 | 0.68 | 23 | 1018.6 |
| 20260507201604 | 60 | 283 | 3.5 | 9.6 | 0.00 | 0.80 | 0.68 | 24 | 1018.7 |
| 20260507200059 | 60 | 314 | 2.6 | 8.7 | 0.00 | 0.80 | 0.68 | 24 | 1019.0 |
| 20260507194610 | 59 | 273 | 2.6 | 9.6 | 0.00 | 0.81 | 0.68 | 26 | 1019.3 |
| 20260507193100 | 58 | 355 | 3.5 | 10.4 | 0.00 | 0.81 | 0.68 | 24 | 1019.5 |
| 20260507191617 | 58 | 285 | 2.6 | 11.3 | 0.00 | 0.81 | 0.68 | 30 | 1019.6 |
| 20260507190108 | 57 | 257 | 2.6 | 9.6 | 0.01 | 0.81 | 0.68 | 32 | 1019.8 |
| 20260507184608 | 56 | 275 | 1.7 | 11.3 | 0.05 | 0.82 | 0.68 | 37 | 1019.8 |
| 20260507183105 | 55 | 298 | 3.5 | 10.4 | 0.10 | 0.82 | 0.68 | 35 | 1020.0 |
| 20260507181554 | 54 | 351 | 2.6 | 6.1 | 0.17 | 0.82 | 0.68 | 44 | 1020.3 |
| 20260507180056 | 53 | 328 | 1.7 | 5.2 | 0.23 | 0.81 | 0.67 | 42 | 1020.5 |
| 20260507174557 | 51 | 307 | 0.9 | 5.2 | 0.25 | 0.79 | 0.63 | 43 | 1020.7 |
| 20260507173057 | 50 | 0 | 0.0 | 6.1 | 0.25 | 0.74 | 0.58 | 45 | 1020.8 |
| 20260507171555 | 49 | 0 | 0.9 | 7.0 | 0.24 | 0.67 | 0.51 | 45 | 1021.0 |
| 20260507170059 | 47 | 293 | 1.7 | 7.0 | 0.24 | 0.60 | 0.44 | 46 | 1021.2 |
| 20260507164629 | 46 | 329 | 1.7 | 7.0 | 0.24 | 0.55 | 0.38 | 47 | 1021.3 |
| 20260507163056 | 46 | 312 | 2.6 | 8.7 | 0.23 | 0.50 | 0.33 | 43 | 1021.2 |
| 20260507161601 | 45 | 327 | 3.5 | 7.8 | 0.23 | 0.44 | 0.27 | 43 | 1021.2 |
| 20260507160056 | 45 | 354 | 1.7 | 7.0 | 0.19 | 0.37 | 0.20 | 48 | 1021.5 |
| 20260507154555 | 44 | 332 | 0.0 | 4.3 | 0.14 | 0.32 | 0.14 | 56 | 1021.6 |
| 20260507153056 | 43 | 306 | 1.7 | 7.0 | 0.10 | 0.28 | 0.10 | 52 | 1021.6 |
| 20260507151601 | 43 | 275 | 2.6 | 7.8 | 0.04 | 0.22 | 0.04 | 48 | 1021.6 |
| 20260507150057 | 42 | 342 | 1.7 | 7.0 | 0.01 | 0.19 | 0.01 | 49 | 1021.7 |
| 20260507144600 | 41 | 328 | 0.9 | 6.1 | 0.00 | 0.18 | 0.00 | 54 | 1021.6 |
| 20260507143110 | 41 | 326 | 2.6 | 7.8 | 0.00 | 0.18 | 0.00 | 50 | 1021.7 |
| 20260507141611 | 40 | 254 | 1.7 | 7.0 | 0.00 | 0.18 | 0.00 | 53 | 1021.6 |
| 20260507140056 | 38 | 290 | 1.7 | 4.3 | 0.00 | 0.18 | 0.00 | 58 | 1021.9 |
| 20260507134556 | 37 | 288 | 0.0 | 4.3 | 0.00 | 0.18 | 0.00 | 60 | 1022.1 |
| 20260507133109 | 36 | 307 | 0.9 | 4.3 | 0.00 | 0.18 | 0.00 | 66 | 1022.2 |
| 20260507131612 | 34 | 302 | 0.9 | 3.5 | 0.00 | 0.18 | 0.00 | 68 | 1022.2 |
| 20260507130059 | 32 | 0 | 0.0 | 1.7 | 0.00 | 0.18 | 0.00 | 73 | 1022.0 |
| 20260507124558 | 29 | 0 | 0.0 | 0.9 | 0.00 | 0.18 | 0.00 | 79 | 1021.8 |
| 20260507123112 | 25 | 0 | 0.0 | 0.9 | 0.00 | 0.18 | 0.00 | 84 | 1021.5 |
| 20260507121556 | 24 | 0 | 0.0 | 0.0 | 0.00 | 0.18 | 0.00 | 84 | 1021.3 |
| 20260507120056 | 24 | 0 | 0.0 | 0.9 | 0.00 | 0.18 | 0.00 | 83 | 1021.3 |
| 20260507034558 | 24 | 0 | 0.0 | 0.9 | 0.00 | 0.18 | 0.18 | 90 | 1020.7 |
| 20260507033059 | 23 | 0 | 0.0 | 0.0 | 0.00 | 0.18 | 0.18 | 91 | 1020.7 |
| 20260507031559 | 23 | 0 | 0.0 | 0.0 | 0.00 | 0.18 | 0.18 | 89 | 1020.7 |
| 20260507030058 | 23 | 0 | 0.0 | 0.0 | 0.00 | 0.18 | 0.18 | 89 | 1020.5 |
| 20260507024559 | 24 | 0 | 0.0 | 0.0 | 0.00 | 0.18 | 0.18 | 88 | 1020.3 |
| 20260507023058 | 25 | 0 | 0.0 | 0.0 | 0.01 | 0.18 | 0.18 | 88 | 1020.3 |
| 20260507021559 | 26 | 0 | 0.0 | 0.9 | 0.01 | 0.18 | 0.18 | 88 | 1020.5 |
| 20260507020118 | 26 | 0 | 0.0 | 0.9 | 0.02 | 0.18 | 0.18 | 86 | 1020.3 |